{"data":{"norad_id":57413,"epoch":"2026-09-20T22:00:03.000096Z","epoch_age_seconds":91570,"freshness":"FRESH","line1":"1 57413U 23102K   26263.91670139  .00050644  00000+0  10412-2 0  9991","line2":"2 57413  43.0009 160.8268 0002485 271.4212  68.4282 15.45205408  5769","mean_motion":15.45205408,"eccentricity":0.0002485,"inclination_deg":43.0009,"raan_deg":160.8268,"arg_perigee_deg":271.4212,"mean_anomaly_deg":68.4282,"bstar":0.0010412,"rev_number":576,"period_min":93.191493670983,"perigee_km":429.08257371974,"apogee_km":432.4666027791,"semimajor_km":6808.9115882494,"source":"CELESTRAK","updated_at":"2026-09-21T09:00:33.624486Z"}}